Weather History for Clearfield, PA

Change the Weather History Date:

Monday, October 7, 2013

  Actual Average (KDUJ) Record (KDUJ)
Temperature  
Mean Temperature 58 °F 52 °F  
Max Temperature 71 °F 62 °F 82 °F (2007)
Min Temperature 46 °F 42 °F 25 °F (1964)
Degree Days  
Heating Degree Days 6 13  
Month to date heating degree days 86  
Since 1 July heating degree days 332  
Cooling Degree Days 0 0  
Month to date cooling degree days 0  
Year to date cooling degree days 360  
Growing Degree Days 8 (Base 50)    
Moisture  
Dew Point 52 °F    
Average Humidity 83    
Maximum Humidity 100    
Minimum Humidity 57    
Precipitation  
Precipitation 0.32 in 0.10 in 1.55 in (2005)
Month to date precipitation 0.74  
Sea Level Pressure  
Sea Level Pressure 29.85 in    
Wind  
Wind Speed 11 mph (SW)    
Max Wind Speed 17 mph    
Max Gust Speed 44 mph    
Visibility 9 miles    
Events Rain    
T = Trace of Precipitation, MM = Missing Value Source: NWS Daily Summary

Daily Weather History Graph

Daily Weather History Graph

Search for Another Location

Airport:

Trip Planner

Search our weather history database for the weather conditions in past years. The results will help you decide how hot, cold, wet, or windy it might be!

Date:

Astronomy

Oct. 07, 2013 Rise Set
Actual Time 7:16 AM EDT 6:45 PM EDT
Civil Twilight 6:49 AM EDT 7:12 PM EDT
Nautical Twilight 6:17 AM EDT 7:44 PM EDT
Astronomical Twilight 5:45 AM EDT 8:16 PM EDT
Moon 10:06 AM EDT (10/7) 8:27 PM EDT (10/7)
Length of Visible Light 12h 23m
Length of Day
11h 28m
Waxing Crescent, 8% of the Moon is Illuminated
Oct 7
Waxing Crescent
Oct 11
First Quarter
Oct 18
Full
Oct 26
Last Quarter
Nov 3
New

Hourly Weather History & Observations

Time (EDT) Temp. Windchill Dew Point Humidity Pressure Visibility Wind Dir Wind Speed Gust Speed Precip Events Conditions
12:54 AM 71.1 °F - 61.0 °F 70% 29.81 in 10.0 mi South 9.2 mph 17.3 mph N/A   Clear
1:54 AM 70.0 °F - 61.0 °F 73% 29.78 in 10.0 mi South 9.2 mph 24.2 mph N/A   Clear
2:54 AM 69.1 °F - 61.0 °F 75% 29.76 in 10.0 mi South 9.2 mph 18.4 mph N/A   Partly Cloudy
3:54 AM 69.1 °F - 62.1 °F 78% 29.74 in 10.0 mi South 11.5 mph 18.4 mph N/A   Partly Cloudy
4:54 AM 69.1 °F - 61.0 °F 75% 29.73 in 10.0 mi South 15.0 mph 19.6 mph N/A   Partly Cloudy
5:54 AM 69.1 °F - 62.1 °F 78% 29.71 in 10.0 mi South 9.2 mph 17.3 mph N/A   Overcast
6:54 AM 69.1 °F - 62.1 °F 78% 29.70 in 10.0 mi South 9.2 mph 26.5 mph N/A   Overcast
7:39 AM 59.0 °F - 57.2 °F 94% 29.75 in 1.8 mi West 13.8 mph 43.7 mph 0.15 in Rain Heavy Rain
7:45 AM 59.0 °F - 57.2 °F 94% 29.77 in 1.8 mi West 17.3 mph 25.3 mph 0.17 in Rain Heavy Rain
7:47 AM 59.0 °F - 57.2 °F 94% 29.77 in 3.0 mi WSW 12.7 mph 25.3 mph 0.17 in Rain Light Rain
7:54 AM 59.0 °F - 57.0 °F 93% 29.75 in 9.0 mi WSW 12.7 mph 23.0 mph 0.17 in Rain Light Rain
8:06 AM 57.2 °F - 55.4 °F 94% 29.78 in 4.0 mi WSW 11.5 mph 21.9 mph 0.03 in Rain Rain
8:41 AM 57.2 °F - 55.4 °F 94% 29.80 in 2.5 mi SW 12.7 mph - 0.09 in Rain Heavy Rain
8:54 AM 55.9 °F - 55.9 °F 100% 29.80 in 3.0 mi WSW 10.4 mph - 0.13 in Rain Rain
10:54 AM 54.0 °F - 54.0 °F 100% 29.81 in 10.0 mi SW 11.5 mph - N/A Rain Light Rain
10:57 AM 53.6 °F - 53.6 °F 100% 29.83 in 10.0 mi SW 10.4 mph - 0.00 in Rain Light Rain
11:12 AM 53.6 °F - 53.6 °F 100% 29.83 in 10.0 mi SW 10.4 mph 17.3 mph 0.00 in Rain Light Rain
11:37 AM 53.6 °F - 53.6 °F 100% 29.82 in 10.0 mi WSW 12.7 mph 18.4 mph 0.02 in Rain Light Rain
11:54 AM 53.1 °F - 52.0 °F 96% 29.81 in 10.0 mi WSW 11.5 mph 18.4 mph 0.02 in Rain Light Rain
12:17 PM 53.6 °F - 51.8 °F 94% 29.83 in 10.0 mi WSW 12.7 mph 19.6 mph 0.00 in   Overcast
12:52 PM 53.6 °F - 51.8 °F 94% 29.83 in 10.0 mi West 11.5 mph 18.4 mph 0.00 in   Overcast
12:54 PM 54.0 °F - 50.0 °F 86% 29.82 in 10.0 mi WSW 10.4 mph 18.4 mph 0.00 in   Overcast
1:54 PM 59.0 °F - 48.0 °F 67% 29.81 in 10.0 mi WSW 13.8 mph 20.7 mph N/A   Scattered Clouds
2:54 PM 55.9 °F - 42.1 °F 60% 29.86 in 10.0 mi WNW 16.1 mph 24.2 mph N/A   Mostly Cloudy
3:54 PM 55.9 °F - 41.0 °F 57% 29.89 in 10.0 mi West 11.5 mph 23.0 mph N/A   Mostly Cloudy
4:54 PM 55.9 °F - 41.0 °F 57% 29.91 in 10.0 mi WSW 11.5 mph 20.7 mph N/A   Scattered Clouds
5:54 PM 55.0 °F - 41.0 °F 59% 29.94 in 10.0 mi West 15.0 mph 21.9 mph N/A   Scattered Clouds
6:54 PM 53.1 °F - 42.1 °F 66% 29.99 in 10.0 mi West 4.6 mph - N/A   Partly Cloudy
7:54 PM 50.0 °F - 42.1 °F 74% 30.02 in 10.0 mi WSW 3.5 mph - N/A   Clear
8:54 PM 48.9 °F - 42.1 °F 77% 30.04 in 10.0 mi WSW 5.8 mph - N/A   Scattered Clouds
9:54 PM 48.0 °F - 42.1 °F 80% 30.08 in 10.0 mi SW 4.6 mph - N/A   Clear
10:54 PM 46.0 °F 44.8 °F 42.1 °F 86% 30.10 in 10.0 mi South 3.5 mph - N/A   Clear
11:54 PM 46.9 °F - 43.0 °F 86% 30.11 in 10.0 mi WSW 4.6 mph - N/A   Partly Cloudy